QPF
0.01 0.01 0.01 0.01 0.02 0.02 0.01 0.01 0.01 0.01 0.01 0.01 0.01 0.01 0.01 0.01 0.01 0.01 0.01 0.01 0.02 0.02 0.01 0.01 0.01 0.01 0.02 0.02 0.02 0.02 0.02 0.02 0.01 0.01 0.01 0.01 0.01 0.01 0.01 0.01 0.01 0.01 0.01
0.01 0.01 0.01 0.01 0.01 0.02 0.02 0.01 0.02 0.02 0.02 0.02 0.01 0.01 0.01 0.01 0.01 0.01 0.01 0.01 0.01 0.01 0.02 0.02 0.01 0.01 0.02 0.02 0.02 0.02 0.02 0.02 0.02 0.02 0.01 0.01 0.01 0.01 0.01 0.01 0.01 0.00 0.00
0.02 0.01 0.01 0.01 0.01 0.01 0.03 0.03 0.03 0.02 0.02 0.02 0.02 0.01 0.01 0.01 0.01 0.02 0.02 0.02 0.01 0.01 0.01 0.01 0.02 0.02 0.02 0.02 0.02 0.02 0.02 0.02 0.02 0.02 0.02 0.02 0.01 0.01 0.01 0.01 0.00 0.00 0.00
0.03 0.02 0.01 0.01 0.01 0.01 0.01 0.03 0.03 0.02 0.02 0.01 0.01 0.01 0.01 0.01 0.01 0.01 0.01 0.02 0.02 0.02 0.02 0.02 0.02 0.02 0.02 0.02 0.02 0.02 0.02 0.02 0.02 0.02 0.02 0.01 0.01 0.01 0.01 0.01 0.01 0.01 0.01
0.03 0.03 0.02 0.02 0.01 0.01 0.01 0.01 0.03 0.03 0.02 0.02 0.01 0.01 0.01 0.01 0.01 0.01 0.02 0.02 0.02 0.03 0.03 0.03 0.02 0.02 0.02 0.02 0.02 0.02 0.02 0.02 0.01 0.01 0.02 0.02 0.02 0.01 0.01 0.01 0.01 0.01 0.01
0.03 0.03 0.03 0.02 0.02 0.01 0.01 0.01 0.01 0.03 0.03 0.02 0.01 0.01 0.00 0.00 0.01 0.01 0.01 0.02 0.02 0.02 0.02 0.02 0.03 0.03 0.02 0.02 0.02 0.02 0.01 0.01 0.01 0.01 0.01 0.02 0.02 0.02 0.02 0.01 0.01 0.01 0.01
0.03 0.03 0.02 0.02 0.02 0.01 0.01 0.01 0.01 0.02 0.03 0.02 0.01 0.01 0.01 0.00 0.01 0.01 0.01 0.01 0.02 0.02 0.02 0.02 0.02 0.02 0.02 0.02 0.02 0.02 0.02 0.02 0.01 0.01 0.02 0.02 0.02 0.02 0.03 0.02 0.02 0.01 0.01
0.03 0.02 0.02 0.02 0.01 0.01 0.01 0.01 0.01 0.01 0.01 0.02 0.01 0.01 0.01 0.01 0.01 0.01 0.01 0.01 0.01 0.01 0.02 0.02 0.01 0.01 0.02 0.02 0.02 0.02 0.02 0.02 0.02 0.01 0.01 0.02 0.02 0.02 0.03 0.03 0.03 0.02 0.01
0.03 0.02 0.02 0.02 0.02 0.01 0.02 0.02 0.01 0.01 0.01 0.01 0.01 0.01 0.01 0.01 0.01 0.01 0.01 0.01 0.01 0.01 0.01 0.01 0.01 0.01 0.01 0.01 0.01 0.01 0.02 0.02 0.02 0.02 0.02 0.02 0.02 0.03 0.03 0.02 0.02 0.03 0.02
0.03 0.02 0.02 0.03 0.03 0.02 0.02 0.02 0.01 0.01 0.01 0.01 0.01 0.01 0.01 0.01 0.01 0.01 0.01 0.01 0.01 0.01 0.01 0.01 0.01 0.01 0.01 0.01 0.01 0.01 0.01 0.01 0.01 0.01 0.01 0.02 0.02 0.02 0.02 0.02 0.02 0.02 0.03
0.03 0.02 0.02 0.02 0.03 0.03 0.02 0.02 0.02 0.01 0.01 0.01 0.01 0.01 0.01 0.01 0.01 0.01 0.01 0.01 0.01 0.01 0.01 0.01 0.01 0.01 0.01 0.01 0.01 0.01 0.01 0.01 0.01 0.01 0.01 0.01 0.01 0.01 0.01 0.01 0.01 0.01 0.02
0.04 0.03 0.02 0.01 0.02 0.03 0.03 0.03 0.03 0.03 0.02 0.02 0.02 0.02 0.01 0.01 0.01 0.01 0.01 0.02 0.01 0.01 0.01 0.01 0.01 0.01 0.01 0.01 0.01 0.01 0.01 0.01 0.00 0.00 0.00 0.00 0.00 0.00 0.01 0.01 0.01 0.01 0.01
0.04 0.04 0.02 0.02 0.01 0.02 0.03 0.04 0.04 0.04 0.03 0.02 0.02 0.02 0.02 0.02 0.01 0.01 0.01 0.01 0.02 0.01 0.01 0.01 0.01 0.02 0.02 0.01 0.01 0.01 0.01 0.01 0.01 0.01 0.00 0.00 0.00 0.00 0.00 0.01 0.01 0.01 0.01
0.03 0.04 0.03 0.02 0.02 0.02 0.02 0.03 0.04 0.04 0.03 0.03 0.03 0.02 0.02 0.02 0.02 0.01 0.01 0.01 0.01 0.01 0.02 0.02 0.02 0.02 0.02 0.01 0.02 0.02 0.01 0.01 0.01 0.01 0.01 0.00 0.00 0.00 0.00 0.01 0.01 0.01 0.01
0.03 0.03 0.03 0.03 0.03 0.02 0.02 0.03 0.03 0.03 0.04 0.03 0.03 0.03 0.02 0.02 0.02 0.02 0.01 0.01 0.01 0.01 0.01 0.01 0.01 0.01 0.01 0.01 0.01 0.01 0.01 0.01 0.01 0.01 0.01 0.01 0.01 0.00 0.00 0.01 0.01 0.01 0.01
0.03 0.03 0.03 0.03 0.03 0.03 0.03 0.03 0.04 0.03 0.03 0.03 0.03 0.03 0.03 0.03 0.03 0.02 0.02 0.01 0.01 0.01 0.01 0.01 0.01 0.01 0.01 0.01 0.01 0.01 0.01 0.01 0.01 0.01 0.01 0.01 0.01 0.01 0.01 0.01 0.01 0.01 0.01
0.04 0.03 0.03 0.03 0.03 0.03 0.03 0.03 0.03 0.03 0.03 0.03 0.03 0.03 0.03 0.02 0.02 0.02 0.02 0.02 0.02 0.02 0.01 0.01 0.01 0.00 0.00 0.00 0.00 0.00 0.00 0.00 0.01 0.01 0.01 0.01 0.01 0.01 0.01 0.01 0.01 0.01 0.01
0.03 0.03 0.03 0.03 0.03 0.03 0.03 0.03 0.03 0.02 0.02 0.03 0.03 0.03 0.03 0.02 0.02 0.02 0.02 0.02 0.03 0.02 0.02 0.01 0.01 0.00 0.00 0.00 0.00 0.00 0.00 0.00 0.00 0.00 0.01 0.01 0.01 0.01 0.01 0.01 0.01 0.01 0.01
0.02 0.02 0.02 0.02 0.03 0.03 0.03 0.03 0.03 0.03 0.03 0.03 0.03 0.03 0.03 0.03 0.03 0.03 0.02 0.03 0.02 0.02 0.01 0.01 0.01 0.01 0.01 0.01 0.01 0.01 0.00 0.00 0.00 0.00 0.00 0.00 0.00 0.01 0.01 0.01 0.01 0.01 0.01
0.01 0.02 0.02 0.02 0.02 0.02 0.03 0.03 0.02 0.03 0.03 0.02 0.02 0.02 0.02 0.03 0.04 0.03 0.03 0.03 0.02 0.01 0.01 0.01 0.01 0.01 0.01 0.01 0.01 0.01 0.01 0.01 0.00 0.00 0.00 0.00 0.01 0.01 0.01 0.01 0.01 0.01 0.01
0.01 0.01 0.02 0.02 0.02 0.02 0.02 0.02 0.02 0.02 0.02 0.03 0.03 0.03 0.03 0.03 0.03 0.02 0.02 0.02 0.01 0.01 0.01 0.01 0.01 0.01 0.01 0.01 0.01 0.01 0.01 0.01 0.01 0.01 0.01 0.01 0.01 0.01 0.01 0.01 0.01 0.01 0.01
0.01 0.01 0.01 0.02 0.02 0.03 0.03 0.03 0.03 0.03 0.03 0.03 0.03 0.03 0.03 0.03 0.02 0.02 0.02 0.02 0.01 0.01 0.01 0.01 0.02 0.02 0.01 0.01 0.01 0.01 0.01 0.01 0.01 0.01 0.01 0.01 0.01 0.01 0.01 0.01 0.01 0.01 0.01
0.02 0.02 0.02 0.02 0.03 0.03 0.04 0.03 0.03 0.03 0.03 0.03 0.03 0.02 0.02 0.02 0.02 0.02 0.02 0.02 0.02 0.02 0.01 0.01 0.02 0.02 0.01 0.01 0.01 0.01 0.01 0.01 0.01 0.01 0.01 0.01 0.01 0.01 0.01 0.01 0.01 0.01 0.01
0.03 0.03 0.03 0.03 0.03 0.03 0.04 0.04 0.04 0.04 0.04 0.04 0.04 0.04 0.03 0.03 0.03 0.03 0.03 0.03 0.03 0.03 0.02 0.02 0.01 0.01 0.01 0.02 0.02 0.02 0.02 0.01 0.01 0.01 0.01 0.01 0.01 0.01 0.01 0.01 0.01 0.01 0.01
0.03 0.03 0.03 0.03 0.03 0.03 0.04 0.04 0.04 0.04 0.04 0.04 0.04 0.04 0.03 0.03 0.03 0.03 0.03 0.03 0.03 0.03 0.02 0.02 0.01 0.01 0.01 0.01 0.02 0.02 0.02 0.02 0.02 0.02 0.02 0.02 0.02 0.02 0.01 0.01 0.01 0.01 0.01
0.03 0.03 0.03 0.03 0.03 0.04 0.04 0.04 0.04 0.05 0.05 0.04 0.04 0.03 0.03 0.03 0.02 0.02 0.02 0.02 0.02 0.02 0.02 0.02 0.02 0.01 0.01 0.01 0.02 0.02 0.02 0.02 0.02 0.03 0.03 0.04 0.03 0.02 0.02 0.02 0.02 0.02 0.01
MSLP
1010.95 1010.63 1010.50 1010.59 1010.87 1011.30 1011.80 1012.32 1012.82 1013.26 1013.64 1013.99 1014.34 1014.74 1015.22 1015.80 1016.49 1017.24 1018.03 1018.80 1019.49 1020.08 1020.56 1020.93 1021.23 1021.50 1021.81 1022.21 1022.72 1023.37 1024.13 1024.99 1025.89 1026.79 1027.64 1028.42 1029.10 1029.69 1030.20 1030.64 1031.06 1031.45 1031.84
1011.68 1011.18 1010.89 1010.82 1010.96 1011.24 1011.63 1012.05 1012.46 1012.83 1013.16 1013.47 1013.79 1014.17 1014.63 1015.20 1015.87 1016.61 1017.39 1018.15 1018.84 1019.44 1019.93 1020.33 1020.66 1020.98 1021.33 1021.76 1022.31 1022.99 1023.78 1024.66 1025.58 1026.51 1027.40 1028.23 1028.97 1029.63 1030.21 1030.73 1031.21 1031.66 1032.09
1012.43 1011.79 1011.36 1011.13 1011.11 1011.26 1011.51 1011.82 1012.14 1012.44 1012.72 1013.00 1013.29 1013.65 1014.10 1014.64 1015.28 1016.00 1016.74 1017.48 1018.16 1018.76 1019.27 1019.70 1020.08 1020.45 1020.86 1021.35 1021.95 1022.65 1023.46 1024.35 1025.28 1026.21 1027.12 1027.96 1028.74 1029.45 1030.10 1030.68 1031.23 1031.74 1032.21
1013.19 1012.44 1011.87 1011.50 1011.32 1011.32 1011.44 1011.63 1011.86 1012.10 1012.33 1012.58 1012.86 1013.21 1013.63 1014.15 1014.75 1015.41 1016.11 1016.80 1017.45 1018.04 1018.57 1019.04 1019.47 1019.91 1020.39 1020.94 1021.58 1022.32 1023.14 1024.02 1024.93 1025.85 1026.74 1027.59 1028.39 1029.13 1029.82 1030.47 1031.08 1031.65 1032.17
1013.91 1013.07 1012.39 1011.89 1011.58 1011.43 1011.42 1011.49 1011.63 1011.80 1012.00 1012.23 1012.50 1012.83 1013.24 1013.72 1014.28 1014.88 1015.52 1016.15 1016.76 1017.33 1017.86 1018.36 1018.85 1019.36 1019.90 1020.52 1021.21 1021.97 1022.79 1023.66 1024.54 1025.43 1026.29 1027.12 1027.92 1028.68 1029.41 1030.11 1030.77 1031.39 1031.96
1014.55 1013.65 1012.88 1012.27 1011.83 1011.55 1011.41 1011.38 1011.43 1011.54 1011.71 1011.92 1012.18 1012.51 1012.90 1013.35 1013.86 1014.41 1014.98 1015.55 1016.12 1016.66 1017.19 1017.71 1018.24 1018.81 1019.42 1020.09 1020.82 1021.60 1022.42 1023.27 1024.12 1024.96 1025.79 1026.60 1027.39 1028.16 1028.91 1029.65 1030.35 1031.02 1031.63
1015.08 1014.14 1013.30 1012.60 1012.05 1011.65 1011.39 1011.26 1011.23 1011.29 1011.43 1011.63 1011.89 1012.22 1012.60 1013.03 1013.50 1014.00 1014.51 1015.03 1015.54 1016.06 1016.59 1017.13 1017.71 1018.32 1018.99 1019.71 1020.47 1021.26 1022.08 1022.90 1023.72 1024.53 1025.32 1026.11 1026.89 1027.66 1028.43 1029.18 1029.92 1030.61 1031.25
1015.47 1014.50 1013.61 1012.83 1012.19 1011.69 1011.34 1011.12 1011.02 1011.03 1011.14 1011.34 1011.60 1011.93 1012.31 1012.73 1013.17 1013.64 1014.11 1014.59 1015.08 1015.58 1016.12 1016.68 1017.29 1017.95 1018.67 1019.42 1020.21 1021.02 1021.83 1022.64 1023.43 1024.21 1024.97 1025.74 1026.50 1027.27 1028.05 1028.81 1029.56 1030.27 1030.92
1015.68 1014.70 1013.79 1012.96 1012.24 1011.67 1011.23 1010.94 1010.79 1010.76 1010.85 1011.04 1011.31 1011.65 1012.04 1012.45 1012.89 1013.34 1013.80 1014.27 1014.75 1015.27 1015.81 1016.41 1017.06 1017.77 1018.52 1019.31 1020.12 1020.94 1021.75 1022.54 1023.32 1024.07 1024.82 1025.57 1026.32 1027.09 1027.86 1028.63 1029.37 1030.07 1030.70
1015.75 1014.77 1013.84 1012.98 1012.22 1011.59 1011.09 1010.75 1010.55 1010.49 1010.57 1010.75 1011.03 1011.39 1011.79 1012.22 1012.67 1013.13 1013.60 1014.08 1014.59 1015.13 1015.72 1016.36 1017.06 1017.81 1018.60 1019.42 1020.25 1021.08 1021.89 1022.67 1023.43 1024.17 1024.91 1025.64 1026.39 1027.15 1027.91 1028.66 1029.38 1030.06 1030.66
1015.69 1014.73 1013.80 1012.93 1012.15 1011.49 1010.96 1010.58 1010.35 1010.27 1010.34 1010.52 1010.81 1011.18 1011.60 1012.06 1012.54 1013.03 1013.53 1014.05 1014.60 1015.19 1015.83 1016.53 1017.28 1018.08 1018.91 1019.76 1020.61 1021.44 1022.25 1023.02 1023.77 1024.50 1025.23 1025.96 1026.69 1027.44 1028.18 1028.91 1029.60 1030.24 1030.80
1015.57 1014.63 1013.72 1012.86 1012.08 1011.41 1010.87 1010.48 1010.24 1010.15 1010.21 1010.40 1010.70 1011.09 1011.53 1012.01 1012.52 1013.05 1013.60 1014.18 1014.78 1015.44 1016.14 1016.90 1017.71 1018.56 1019.43 1020.30 1021.16 1022.00 1022.80 1023.57 1024.31 1025.03 1025.74 1026.45 1027.18 1027.90 1028.62 1029.32 1029.98 1030.57 1031.09
1015.45 1014.54 1013.66 1012.82 1012.06 1011.41 1010.88 1010.49 1010.25 1010.17 1010.24 1010.43 1010.74 1011.14 1011.60 1012.11 1012.65 1013.22 1013.82 1014.45 1015.12 1015.84 1016.60 1017.42 1018.28 1019.17 1020.07 1020.97 1021.84 1022.67 1023.47 1024.22 1024.95 1025.65 1026.35 1027.05 1027.75 1028.46 1029.15 1029.82 1030.44 1030.99 1031.47
1015.37 1014.50 1013.64 1012.84 1012.12 1011.49 1010.99 1010.63 1010.41 1010.35 1010.43 1010.64 1010.96 1011.37 1011.84 1012.36 1012.93 1013.53 1014.16 1014.84 1015.56 1016.33 1017.15 1018.02 1018.92 1019.84 1020.77 1021.67 1022.54 1023.37 1024.15 1024.89 1025.60 1026.29 1026.96 1027.64 1028.32 1029.00 1029.67 1030.31 1030.89 1031.42 1031.86
1015.36 1014.51 1013.69 1012.92 1012.24 1011.65 1011.20 1010.88 1010.70 1010.67 1010.77 1011.00 1011.34 1011.75 1012.23 1012.77 1013.34 1013.96 1014.61 1015.31 1016.06 1016.86 1017.72 1018.61 1019.54 1020.48 1021.41 1022.32 1023.18 1024.00 1024.77 1025.49 1026.18 1026.84 1027.50 1028.16 1028.81 1029.47 1030.11 1030.72 1031.29 1031.79 1032.22
1015.41 1014.56 1013.76 1013.02 1012.38 1011.85 1011.44 1011.18 1011.06 1011.08 1011.22 1011.48 1011.83 1012.26 1012.75 1013.29 1013.86 1014.47 1015.13 1015.83 1016.58 1017.39 1018.25 1019.15 1020.08 1021.02 1021.94 1022.84 1023.69 1024.49 1025.24 1025.95 1026.62 1027.27 1027.91 1028.54 1029.18 1029.82 1030.44 1031.04 1031.59 1032.08 1032.50
1015.47 1014.61 1013.82 1013.11 1012.50 1012.02 1011.67 1011.47 1011.41 1011.49 1011.69 1011.99 1012.38 1012.83 1013.33 1013.87 1014.44 1015.04 1015.68 1016.36 1017.10 1017.89 1018.72 1019.60 1020.51 1021.43 1022.34 1023.21 1024.05 1024.84 1025.57 1026.26 1026.92 1027.56 1028.18 1028.81 1029.43 1030.05 1030.67 1031.25 1031.80 1032.29 1032.72
1015.52 1014.63 1013.82 1013.12 1012.54 1012.10 1011.81 1011.68 1011.69 1011.84 1012.11 1012.47 1012.91 1013.40 1013.92 1014.47 1015.03 1015.62 1016.24 1016.89 1017.59 1018.34 1019.14 1019.98 1020.85 1021.73 1022.61 1023.46 1024.28 1025.05 1025.78 1026.46 1027.12 1027.75 1028.37 1028.99 1029.61 1030.23 1030.83 1031.41 1031.96 1032.46 1032.89
1015.52 1014.59 1013.76 1013.05 1012.48 1012.08 1011.84 1011.77 1011.85 1012.08 1012.43 1012.86 1013.36 1013.90 1014.47 1015.04 1015.61 1016.19 1016.79 1017.42 1018.08 1018.78 1019.53 1020.32 1021.14 1021.97 1022.81 1023.63 1024.43 1025.19 1025.91 1026.60 1027.26 1027.90 1028.52 1029.15 1029.76 1030.38 1030.99 1031.57 1032.12 1032.62 1033.06
1015.50 1014.52 1013.64 1012.91 1012.34 1011.96 1011.76 1011.74 1011.89 1012.19 1012.62 1013.13 1013.71 1014.32 1014.94 1015.55 1016.16 1016.75 1017.34 1017.94 1018.57 1019.23 1019.92 1020.65 1021.42 1022.20 1023.00 1023.79 1024.57 1025.32 1026.04 1026.73 1027.40 1028.05 1028.69 1029.32 1029.95 1030.56 1031.17 1031.75 1032.30 1032.80 1033.23
1015.49 1014.45 1013.53 1012.76 1012.18 1011.79 1011.61 1011.62 1011.83 1012.19 1012.69 1013.29 1013.95 1014.63 1015.32 1016.00 1016.64 1017.27 1017.87 1018.47 1019.08 1019.70 1020.35 1021.03 1021.74 1022.48 1023.23 1023.99 1024.74 1025.48 1026.20 1026.90 1027.58 1028.24 1028.89 1029.54 1030.17 1030.79 1031.40 1031.98 1032.52 1033.01 1033.43
1015.57 1014.47 1013.50 1012.69 1012.07 1011.67 1011.48 1011.50 1011.73 1012.14 1012.69 1013.35 1014.09 1014.85 1015.62 1016.36 1017.08 1017.75 1018.39 1019.00 1019.60 1020.20 1020.82 1021.46 1022.13 1022.82 1023.53 1024.25 1024.98 1025.70 1026.41 1027.12 1027.80 1028.48 1029.14 1029.79 1030.43 1031.06 1031.66 1032.23 1032.75 1033.23 1033.63
1015.81 1014.67 1013.65 1012.79 1012.13 1011.68 1011.46 1011.46 1011.68 1012.10 1012.68 1013.38 1014.17 1015.00 1015.84 1016.66 1017.44 1018.18 1018.86 1019.51 1020.12 1020.73 1021.33 1021.94 1022.57 1023.22 1023.90 1024.58 1025.28 1025.98 1026.68 1027.38 1028.07 1028.74 1029.41 1030.06 1030.70 1031.32 1031.91 1032.46 1032.97 1033.42 1033.79
1016.28 1015.10 1014.05 1013.14 1012.42 1011.91 1011.63 1011.58 1011.76 1012.15 1012.72 1013.44 1014.26 1015.13 1016.03 1016.91 1017.76 1018.56 1019.30 1019.99 1020.63 1021.25 1021.85 1022.45 1023.06 1023.68 1024.31 1024.97 1025.63 1026.31 1026.98 1027.66 1028.33 1029.00 1029.66 1030.30 1030.93 1031.53 1032.10 1032.63 1033.11 1033.53 1033.87
1016.99 1015.81 1014.73 1013.77 1012.99 1012.41 1012.06 1011.93 1012.04 1012.38 1012.90 1013.59 1014.40 1015.29 1016.22 1017.14 1018.04 1018.90 1019.69 1020.43 1021.12 1021.76 1022.37 1022.97 1023.56 1024.16 1024.76 1025.38 1026.01 1026.65 1027.29 1027.94 1028.59 1029.23 1029.86 1030.48 1031.08 1031.66 1032.20 1032.70 1033.15 1033.54 1033.85
1017.94 1016.78 1015.68 1014.70 1013.86 1013.21 1012.77 1012.56 1012.58 1012.82 1013.27 1013.90 1014.67 1015.54 1016.46 1017.41 1018.34 1019.23 1020.07 1020.85 1021.57 1022.24 1022.88 1023.48 1024.06 1024.64 1025.22 1025.80 1026.39 1026.99 1027.60 1028.20 1028.81 1029.42 1030.01 1030.60 1031.16 1031.70 1032.20 1032.66 1033.07 1033.42 1033.69
Thickness
5503 5510 5515 5521 5527 5531 5535 5540 5543 5546 5549 5552 5555 5557 5560 5561 5563 5565 5566 5567 5568 5569 5569 5570 5571 5571 5571 5571 5570 5570 5570 5570 5568 5565 5561 5559 5557 5557 5556 5555 5554 5554 5554
5491 5497 5504 5510 5515 5520 5524 5529 5533 5536 5540 5543 5546 5548 5551 5552 5554 5556 5557 5558 5559 5561 5561 5561 5562 5562 5562 5562 5561 5561 5561 5561 5560 5557 5553 5550 5549 5547 5547 5546 5545 5544 5544
5478 5485 5492 5498 5503 5509 5514 5518 5522 5526 5530 5533 5536 5539 5541 5543 5545 5546 5548 5549 5551 5552 5553 5553 5554 5554 5553 5553 5553 5553 5552 5551 5550 5548 5545 5541 5539 5538 5537 5536 5535 5535 5534
5465 5473 5480 5487 5492 5498 5502 5507 5511 5515 5519 5523 5526 5529 5532 5534 5536 5538 5539 5540 5541 5542 5543 5544 5545 5545 5545 5544 5543 5543 5543 5541 5540 5538 5535 5532 5530 5528 5527 5527 5526 5525 5524
5453 5460 5467 5474 5480 5486 5491 5496 5500 5504 5508 5512 5516 5519 5521 5524 5527 5529 5529 5531 5532 5532 5533 5533 5534 5534 5534 5534 5534 5534 5533 5532 5531 5529 5526 5523 5521 5519 5519 5518 5517 5516 5515
5440 5447 5454 5461 5468 5474 5479 5484 5488 5493 5496 5500 5504 5508 5511 5514 5516 5517 5519 5520 5521 5522 5522 5522 5522 5522 5522 5521 5521 5522 5522 5522 5521 5520 5518 5516 5514 5512 5510 5508 5506 5507 5506
5428 5435 5441 5448 5455 5462 5467 5472 5477 5481 5485 5489 5493 5497 5500 5503 5504 5505 5507 5509 5510 5511 5511 5511 5511 5511 5510 5510 5509 5508 5508 5508 5509 5510 5509 5507 5504 5503 5500 5498 5496 5496 5495
5416 5423 5429 5436 5443 5449 5455 5461 5466 5470 5474 5478 5481 5485 5489 5491 5493 5494 5495 5496 5498 5499 5499 5500 5500 5500 5499 5499 5498 5497 5496 5496 5496 5495 5496 5495 5493 5491 5489 5488 5485 5483 5481
5403 5410 5417 5424 5430 5436 5443 5448 5453 5457 5461 5465 5469 5473 5477 5479 5480 5482 5482 5484 5486 5486 5487 5488 5489 5489 5488 5487 5487 5486 5484 5483 5481 5481 5481 5480 5479 5477 5476 5474 5473 5472 5472
5391 5397 5404 5411 5417 5423 5429 5435 5439 5444 5448 5452 5456 5459 5463 5466 5467 5469 5470 5472 5474 5474 5474 5475 5475 5476 5475 5474 5474 5474 5473 5471 5469 5468 5467 5466 5465 5464 5463 5462 5462 5461 5461
5378 5385 5392 5398 5404 5410 5416 5421 5426 5431 5435 5439 5443 5446 5449 5452 5454 5456 5457 5460 5461 5461 5462 5462 5463 5462 5462 5461 5461 5461 5461 5458 5456 5455 5455 5454 5453 5452 5451 5449 5448 5448 5448
5366 5373 5379 5385 5390 5396 5402 5407 5412 5417 5421 5425 5428 5431 5434 5437 5440 5442 5444 5445 5447 5448 5449 5449 5449 5448 5448 5447 5447 5447 5445 5443 5443 5442 5442 5441 5440 5439 5438 5436 5435 5434 5433
5355 5361 5367 5372 5377 5383 5388 5394 5398 5403 5408 5412 5415 5418 5420 5423 5425 5428 5429 5431 5432 5433 5434 5434 5434 5433 5433 5432 5432 5431 5430 5430 5430 5430 5430 5428 5427 5425 5424 5423 5422 5421 5420
5344 5349 5355 5360 5366 5371 5376 5381 5385 5390 5394 5398 5402 5405 5407 5409 5412 5414 5415 5416 5417 5418 5418 5418 5418 5418 5417 5417 5417 5416 5416 5417 5417 5416 5415 5414 5412 5411 5410 5409 5408 5407 5407
5333 5339 5344 5349 5354 5358 5363 5367 5372 5377 5382 5386 5390 5393 5395 5398 5399 5401 5403 5403 5404 5405 5404 5404 5404 5404 5404 5403 5403 5402 5402 5402 5402 5401 5400 5399 5398 5398 5397 5395 5394 5393 5393
5323 5328 5333 5337 5342 5347 5351 5355 5359 5363 5367 5371 5375 5378 5381 5384 5385 5387 5388 5389 5390 5391 5391 5391 5391 5391 5391 5390 5390 5389 5389 5388 5388 5387 5386 5386 5385 5384 5383 5381 5380 5380 5380
5312 5317 5322 5327 5331 5336 5341 5345 5349 5352 5355 5358 5361 5364 5367 5370 5371 5373 5375 5375 5375 5376 5378 5378 5378 5378 5378 5377 5377 5376 5376 5375 5374 5373 5373 5372 5371 5370 5369 5369 5368 5367 5366
5302 5307 5312 5316 5321 5325 5330 5334 5338 5342 5345 5346 5348 5351 5354 5356 5358 5360 5361 5361 5361 5362 5364 5364 5365 5365 5365 5364 5364 5363 5362 5361 5360 5360 5360 5359 5358 5357 5357 5356 5355 5354 5353
5292 5297 5302 5306 5310 5314 5318 5322 5326 5329 5332 5334 5336 5338 5340 5343 5345 5346 5347 5349 5350 5349 5350 5350 5351 5351 5352 5351 5351 5350 5350 5349 5348 5348 5347 5346 5346 5345 5345 5344 5343 5341 5340
5283 5287 5291 5296 5300 5304 5308 5311 5314 5317 5320 5322 5325 5327 5328 5331 5332 5333 5334 5335 5336 5336 5337 5337 5338 5339 5339 5339 5339 5338 5338 5338 5337 5336 5336 5335 5334 5333 5333 5332 5331 5330 5328
5273 5277 5281 5286 5290 5294 5297 5300 5303 5306 5309 5311 5314 5316 5318 5319 5321 5322 5322 5323 5323 5324 5325 5326 5326 5327 5327 5327 5327 5328 5327 5327 5327 5326 5325 5324 5322 5322 5321 5320 5318 5317 5316
5263 5268 5272 5276 5279 5283 5286 5289 5292 5295 5297 5300 5302 5304 5306 5307 5309 5310 5311 5311 5312 5313 5314 5315 5315 5316 5316 5317 5317 5317 5317 5317 5316 5315 5314 5313 5311 5310 5309 5308 5306 5305 5304
5253 5257 5261 5265 5268 5272 5275 5278 5281 5283 5286 5288 5290 5293 5295 5296 5298 5299 5299 5300 5301 5302 5303 5303 5304 5305 5305 5305 5305 5306 5306 5306 5306 5305 5303 5302 5300 5299 5298 5297 5295 5294 5293
5244 5248 5251 5255 5258 5261 5264 5267 5269 5272 5274 5277 5280 5282 5284 5285 5287 5288 5289 5290 5291 5292 5292 5293 5294 5295 5295 5295 5295 5295 5296 5295 5294 5294 5293 5291 5290 5289 5288 5286 5285 5284 5282
5235 5239 5242 5245 5248 5251 5254 5257 5259 5262 5264 5267 5269 5271 5273 5275 5276 5277 5279 5279 5280 5282 5282 5283 5284 5285 5285 5286 5286 5287 5287 5286 5285 5284 5283 5282 5281 5279 5278 5277 5275 5274 5272
5226 5229 5233 5236 5239 5242 5245 5248 5250 5253 5255 5258 5260 5262 5264 5266 5267 5268 5269 5270 5271 5272 5273 5274 5275 5276 5276 5277 5277 5278 5278 5277 5276 5276 5274 5273 5272 5271 5269 5268 5266 5264 5262